Weather in Velikodvorye

Russia / Vladimir Oblast     55°13′37″N   40°38′37″E
temp.,
°C
wind,
m/s
gust,
m/s
humid.,
%
clouds,
%
prec.,
mm/h
press.,
hPa
HPBL,
m
28 july, wed
wed2800:00+17ene11702 0.0 101811
03:00+17sw007062 0.0 101811
06:00+18ne23722 0.0 101779
09:00+24se224915 0.0 1017526
12:00+28sse223693 0.0 10152241
15:00+28ssw2335100 0.0 10142103
18:00+19w61380100 0.2 1014550
21:00+16ese1194100 0.6 101317
29 july, thu
thu2900:00+16se2492100 0.1 101198
03:00+16sse41191100 0.5 1010462
06:00+17s41296100 0.9 1007603
09:00+17ssw3896100 1.4 1006512
12:00+19w479074 0.1 1006603
15:00+24wnw576186 0.8 10061456
18:00+24nw47599 0.1 10061251
21:00+19ssw227811 0.1 100630
30 july, fri
fri3000:00+18sw258371 0.0 100692
03:00+17wsw128631 0.0 100612
06:00+19wsw137993 0.0 100693
09:00+25w3456100 0.0 1006679
12:00+18ene3596100 2.1 1006176
15:00+22sw1478100 2.8 1005701
18:00+23nw347134 0.1 1005762
21:00+18wnw11960 0.1 100511
31 july, sat
sat3100:00+17sw23988 0.1 100650
03:00+16wsw26973 0.3 1005125
06:00+17w28915 0.0 1006192
09:00+23w47562 0.0 1006631
12:00+28w6103348 0.0 10062871
15:00+28wsw710333 0.0 10062972
18:00+26w494083 0.0 1006725
21:00+19wsw24575 0.0 100773
1 august, sun
sun100:00+17w23665 0.0 100944
03:00+16sw2271100 0.0 100922
06:00+17ssw2470100 0.0 1010107
09:00+24ssw36465 0.0 1009569
12:00+30ssw610376 0.0 10072229
15:00+32ssw7122770 0.0 10053551
18:00+27w61147100 0.0 10061318
21:00+21nw2480100 0.0 100878